| time (UTC) | temp C | wind direction | speed KPH | gust KPH | rain 1hr cm | rain 24hr cm | rain mn cm | humidity % | barometer mb |
| 20260508075003 | 15 | 357 | 4.8 | 8.0 | 0.00 | 0.00 | 0.00 | 22 | 1027.7 |
| 20260508074503 | 15 | 8 | 4.8 | 9.7 | 0.00 | 0.00 | 0.00 | 23 | 1028.0 |
| 20260508074003 | 15 | 329 | 4.8 | 9.7 | 0.00 | 0.00 | 0.00 | 22 | 1028.0 |
| 20260508073503 | 15 | 355 | 4.8 | 14.5 | 0.00 | 0.00 | 0.00 | 23 | 1028.0 |
| 20260508073004 | 15 | 357 | 6.4 | 14.5 | 0.00 | 0.00 | 0.00 | 22 | 1027.9 |
| 20260508072503 | 15 | 319 | 4.8 | 11.3 | 0.00 | 0.00 | 0.00 | 22 | 1027.9 |
| 20260508072003 | 15 | 322 | 4.8 | 11.3 | 0.00 | 0.00 | 0.00 | 23 | 1027.9 |
| 20260508071503 | 15 | 16 | 4.8 | 6.4 | 0.00 | 0.00 | 0.00 | 23 | 1027.8 |
| 20260508071003 | 15 | 24 | 3.2 | 6.4 | 0.00 | 0.00 | 0.00 | 23 | 1027.8 |
| 20260508070503 | 15 | 13 | 3.2 | 6.4 | 0.00 | 0.00 | 0.00 | 23 | 1027.7 |
| 20260508070004 | 15 | 69 | 3.2 | 6.4 | 0.00 | 0.00 | 0.00 | 25 | 1027.6 |
| 20260508065503 | 14 | 98 | 3.2 | 6.4 | 0.00 | 0.00 | 0.00 | 25 | 1027.5 |
| 20260508065005 | 14 | 101 | 3.2 | 6.4 | 0.00 | 0.00 | 0.00 | 25 | 1027.6 |
| 20260508064504 | 14 | 88 | 1.6 | 4.8 | 0.00 | 0.00 | 0.00 | 24 | 1027.5 |
| 20260508064003 | 14 | 75 | 3.2 | 4.8 | 0.00 | 0.00 | 0.00 | 24 | 1027.4 |
| 20260508063503 | 13 | 99 | 3.2 | 6.4 | 0.00 | 0.00 | 0.00 | 25 | 1027.4 |
| 20260508063003 | 13 | 82 | 3.2 | 6.4 | 0.00 | 0.00 | 0.00 | 27 | 1027.3 |
| 20260508062503 | 13 | 19 | 3.2 | 6.4 | 0.00 | 0.00 | 0.00 | 27 | 1027.4 |
| 20260508062003 | 13 | 12 | 3.2 | 8.0 | 0.00 | 0.00 | 0.00 | 27 | 1027.5 |
| 20260508061505 | 13 | 34 | 3.2 | 8.0 | 0.00 | 0.00 | 0.00 | 30 | 1027.5 |
| 20260508061003 | 13 | 18 | 3.2 | 8.0 | 0.00 | 0.00 | 0.00 | 29 | 1027.3 |
| 20260508060714 | 13 | 21 | 1.6 | 6.4 | 0.00 | 0.00 | 0.00 | 31 | 1027.3 |
| 20260508060004 | 12 | 88 | 1.6 | 3.2 | 0.00 | 0.00 | 0.00 | 30 | 1027.1 |
| 20260508055715 | 12 | 57 | 3.2 | 4.8 | 0.00 | 0.00 | 0.00 | 31 | 1027.1 |
| 20260508055213 | 12 | 37 | 3.2 | 4.8 | 0.00 | 0.00 | 0.00 | 31 | 1027.0 |
| 20260508054716 | 12 | 3 | 3.2 | 4.8 | 0.00 | 0.00 | 0.00 | 32 | 1027.0 |
| 20260508054214 | 11 | 34 | 1.6 | 4.8 | 0.00 | 0.00 | 0.00 | 33 | 1026.8 |
| 20260508053503 | 11 | 90 | 0.0 | 1.6 | 0.00 | 0.00 | 0.00 | 39 | 1026.7 |
| 20260508053003 | 10 | 135 | 0.0 | 1.6 | 0.00 | 0.00 | 0.00 | 41 | 1026.7 |
| 20260508052503 | 9 | 86 | 0.0 | 3.2 | 0.00 | 0.00 | 0.00 | 45 | 1026.9 |
| 20260508052216 | 9 | 57 | 0.0 | 3.2 | 0.00 | 0.00 | 0.00 | 51 | 1026.9 |
| 20260508051503 | 7 | 344 | 1.6 | 4.8 | 0.00 | 0.00 | 0.00 | 52 | 1026.7 |
| 20260508051003 | 6 | 355 | 1.6 | 4.8 | 0.00 | 0.00 | 0.00 | 55 | 1026.6 |
| 20260508050503 | 5 | 45 | 0.0 | 3.2 | 0.00 | 0.00 | 0.00 | 60 | 1026.6 |
| 20260508050004 | 5 | 0 | 0.0 | 0.0 | 0.00 | 0.00 | 0.00 | 62 | 1026.6 |
| 20260508045503 | 4 | 0 | 0.0 | 0.0 | 0.00 | 0.00 | 0.00 | 65 | 1026.6 |
| 20260508045003 | 4 | 0 | 0.0 | 0.0 | 0.00 | 0.00 | 0.00 | 67 | 1026.5 |
| 20260508044503 | 4 | 0 | 0.0 | 0.0 | 0.00 | 0.00 | 0.00 | 67 | 1026.5 |
| 20260508044003 | 3 | 0 | 0.0 | 0.0 | 0.00 | 0.00 | 0.00 | 71 | 1026.5 |
| 20260508043503 | 3 | 0 | 0.0 | 0.0 | 0.00 | 0.00 | 0.00 | 73 | 1026.5 |
| 20260508043215 | 3 | 0 | 0.0 | 0.0 | 0.00 | 0.00 | 0.00 | 74 | 1026.4 |
| 20260508042503 | 2 | 0 | 0.0 | 0.0 | 0.00 | 0.00 | 0.00 | 73 | 1026.4 |
| 20260508042216 | 2 | 0 | 0.0 | 0.0 | 0.00 | 0.00 | 0.00 | 75 | 1026.4 |
| 20260508041714 | 1 | 0 | 0.0 | 0.0 | 0.00 | 0.00 | 0.00 | 79 | 1026.3 |
| 20260508041003 | 1 | 0 | 0.0 | 0.0 | 0.00 | 0.00 | 0.00 | 80 | 1026.3 |
| 20260508040503 | 1 | 0 | 0.0 | 0.0 | 0.00 | 0.00 | 0.00 | 82 | 1026.1 |
| 20260508040004 | 0 | 0 | 0.0 | 0.0 | 0.00 | 0.00 | 0.00 | 84 | 1026.2 |
| 20260508035503 | 0 | 0 | 0.0 | 0.0 | 0.00 | 0.00 | 0.00 | 85 | 1026.2 |
| 20260508035214 | 0 | 0 | 0.0 | 0.0 | 0.00 | 0.00 | 0.00 | 86 | 1025.9 |
| 20260508034717 | 0 | 0 | 0.0 | 0.0 | 0.00 | 0.00 | 0.00 | 86 | 1026.0 |
| 20260508034003 | 0 | 0 | 0.0 | 0.0 | 0.00 | 0.00 | 0.00 | 88 | 1025.9 |
| 20260508033503 | -1 | 0 | 0.0 | 0.0 | 0.00 | 0.00 | 0.00 | 88 | 1026.0 |
| 20260508033003 | -1 | 0 | 0.0 | 0.0 | 0.00 | 0.00 | 0.00 | 88 | 1025.9 |
| 20260508032503 | -1 | 0 | 0.0 | 0.0 | 0.00 | 0.00 | 0.00 | 89 | 1026.0 |
| 20260508032003 | -1 | 0 | 0.0 | 0.0 | 0.00 | 0.00 | 0.00 | 88 | 1026.0 |
| 20260508031503 | -1 | 0 | 0.0 | 0.0 | 0.00 | 0.00 | 0.00 | 88 | 1025.7 |
| 20260508031003 | -1 | 0 | 0.0 | 0.0 | 0.00 | 0.00 | 0.00 | 87 | 1025.8 |
| 20260508030503 | -2 | 0 | 0.0 | 0.0 | 0.00 | 0.00 | 0.00 | 82 | 1025.8 |
| 20260508030004 | -2 | 0 | 0.0 | 0.0 | 0.00 | 0.00 | 0.00 | 81 | 1025.7 |
| 20260508025717 | -2 | 0 | 0.0 | 0.0 | 0.00 | 0.00 | 0.00 | 81 | 1025.7 |
| 20260508025215 | -2 | 0 | 0.0 | 0.0 | 0.00 | 0.00 | 0.00 | 81 | 1025.5 |
| 20260508024713 | -2 | 0 | 0.0 | 0.0 | 0.00 | 0.00 | 0.00 | 81 | 1025.6 |
| 20260508024003 | -2 | 0 | 0.0 | 0.0 | 0.00 | 0.00 | 0.00 | 80 | 1025.5 |
| 20260508023503 | -2 | 0 | 0.0 | 0.0 | 0.00 | 0.00 | 0.00 | 80 | 1025.3 |
| 20260508023003 | -2 | 0 | 0.0 | 0.0 | 0.00 | 0.00 | 0.00 | 80 | 1025.3 |
| 20260508022715 | -2 | 0 | 0.0 | 0.0 | 0.00 | 0.00 | 0.00 | 80 | 1025.4 |
| 20260508022003 | -2 | 0 | 0.0 | 0.0 | 0.00 | 0.00 | 0.00 | 79 | 1025.0 |
| 20260508021503 | -3 | 0 | 0.0 | 0.0 | 0.00 | 0.00 | 0.00 | 80 | 1025.2 |
| 20260508021003 | -2 | 0 | 0.0 | 0.0 | 0.00 | 0.00 | 0.00 | 79 | 1025.0 |
| 20260508020503 | -2 | 0 | 0.0 | 0.0 | 0.00 | 0.00 | 0.00 | 78 | 1024.8 |
| 20260508020004 | -2 | 0 | 0.0 | 0.0 | 0.00 | 0.00 | 0.00 | 78 | 1025.1 |
| 20260508015503 | -2 | 0 | 0.0 | 0.0 | 0.00 | 0.00 | 0.00 | 78 | 1024.9 |
| 20260508015003 | -2 | 0 | 0.0 | 0.0 | 0.00 | 0.00 | 0.00 | 77 | 1024.8 |
| 20260508014504 | -2 | 0 | 0.0 | 0.0 | 0.00 | 0.00 | 0.00 | 76 | 1024.8 |
| 20260508014004 | -2 | 0 | 0.0 | 0.0 | 0.00 | 0.00 | 0.00 | 75 | 1024.7 |
| 20260508013503 | -2 | 0 | 0.0 | 0.0 | 0.00 | 0.00 | 0.00 | 75 | 1024.6 |
| 20260508013003 | -2 | 0 | 0.0 | 0.0 | 0.00 | 0.00 | 0.00 | 75 | 1024.7 |
| 20260508012715 | -2 | 0 | 0.0 | 0.0 | 0.00 | 0.00 | 0.00 | 74 | 1024.6 |
| 20260508012003 | -2 | 0 | 0.0 | 0.0 | 0.00 | 0.00 | 0.00 | 74 | 1024.5 |
| 20260508011503 | -2 | 0 | 0.0 | 0.0 | 0.00 | 0.00 | 0.00 | 74 | 1024.4 |
| 20260508011003 | -2 | 0 | 0.0 | 0.0 | 0.00 | 0.00 | 0.00 | 74 | 1024.5 |
| 20260508010503 | -2 | 0 | 0.0 | 0.0 | 0.00 | 0.00 | 0.00 | 74 | 1024.4 |
| 20260508010004 | -2 | 0 | 0.0 | 0.0 | 0.00 | 0.00 | 0.00 | 74 | 1024.2 |
| 20260508005503 | -2 | 0 | 0.0 | 0.0 | 0.00 | 0.00 | 0.00 | 74 | 1024.2 |
| 20260508005216 | -2 | 0 | 0.0 | 0.0 | 0.00 | 0.00 | 0.00 | 74 | 1024.2 |
| 20260508004503 | -2 | 0 | 0.0 | 0.0 | 0.00 | 0.00 | 0.00 | 74 | 1024.3 |
| 20260508004003 | -2 | 0 | 0.0 | 0.0 | 0.00 | 0.00 | 0.00 | 77 | 1024.2 |
| 20260508003503 | -2 | 0 | 0.0 | 0.0 | 0.00 | 0.00 | 0.00 | 77 | 1024.1 |
| 20260508003004 | -1 | 0 | 0.0 | 0.0 | 0.00 | 0.00 | 0.00 | 76 | 1024.1 |
| 20260508002503 | -1 | 0 | 0.0 | 0.0 | 0.00 | 0.00 | 0.00 | 75 | 1024.0 |
| 20260508002003 | -1 | 0 | 0.0 | 0.0 | 0.00 | 0.00 | 0.00 | 76 | 1023.9 |
| 20260508001503 | -1 | 0 | 0.0 | 0.0 | 0.00 | 0.00 | 0.00 | 76 | 1023.9 |
| 20260508001003 | -1 | 0 | 0.0 | 0.0 | 0.00 | 0.00 | 0.00 | 75 | 1023.7 |
| 20260508000503 | -1 | 0 | 0.0 | 0.0 | 0.00 | 0.00 | 0.00 | 74 | 1023.7 |
| 20260508000216 | -1 | 0 | 0.0 | 0.0 | 0.00 | 0.00 | 0.00 | 73 | 1023.8 |
| 20260507235503 | -1 | 0 | 0.0 | 0.0 | 0.00 | 0.00 | 0.00 | 72 | 1023.7 |
| 20260507235003 | -1 | 0 | 0.0 | 0.0 | 0.00 | 0.00 | 0.00 | 72 | 1023.5 |
| 20260507234503 | 0 | 0 | 0.0 | 0.0 | 0.00 | 0.00 | 0.00 | 72 | 1023.4 |
| 20260507234213 | 0 | 0 | 0.0 | 0.0 | 0.00 | 0.00 | 0.00 | 72 | 1023.3 |
| 20260507233503 | 0 | 0 | 0.0 | 0.0 | 0.00 | 0.00 | 0.00 | 72 | 1023.3 |
| 20260507233003 | 0 | 0 | 0.0 | 0.0 | 0.00 | 0.00 | 0.00 | 71 | 1023.3 |
| 20260507232717 | 0 | 0 | 0.0 | 0.0 | 0.00 | 0.00 | 0.00 | 70 | 1023.3 |
| 20260507232003 | 0 | 0 | 0.0 | 0.0 | 0.00 | 0.00 | 0.00 | 70 | 1023.1 |
| 20260507231504 | 0 | 0 | 0.0 | 0.0 | 0.00 | 0.00 | 0.00 | 69 | 1023.1 |
| 20260507231003 | 0 | 0 | 0.0 | 0.0 | 0.00 | 0.00 | 0.00 | 69 | 1022.9 |
| 20260507230503 | 0 | 0 | 0.0 | 0.0 | 0.00 | 0.00 | 0.00 | 69 | 1022.8 |
| 20260507230005 | 0 | 0 | 0.0 | 0.0 | 0.00 | 0.00 | 0.00 | 68 | 1022.8 |
| 20260507225503 | 0 | 0 | 0.0 | 0.0 | 0.00 | 0.00 | 0.00 | 68 | 1022.8 |
| 20260507225004 | 0 | 0 | 0.0 | 0.0 | 0.00 | 0.00 | 0.00 | 67 | 1022.7 |
| 20260507224504 | 0 | 0 | 0.0 | 0.0 | 0.00 | 0.00 | 0.00 | 66 | 1022.7 |
| 20260507224004 | 0 | 0 | 0.0 | 0.0 | 0.00 | 0.00 | 0.00 | 63 | 1022.6 |
| 20260507223503 | 0 | 0 | 0.0 | 0.0 | 0.00 | 0.00 | 0.00 | 63 | 1022.6 |
| 20260507223004 | 0 | 0 | 0.0 | 0.0 | 0.00 | 0.00 | 0.00 | 62 | 1022.5 |
| 20260507222503 | 0 | 0 | 0.0 | 0.0 | 0.00 | 0.00 | 0.00 | 62 | 1022.6 |
| 20260507222003 | 1 | 0 | 0.0 | 0.0 | 0.00 | 0.00 | 0.00 | 60 | 1022.5 |
| 20260507221503 | 1 | 0 | 0.0 | 0.0 | 0.00 | 0.00 | 0.00 | 59 | 1022.4 |
| 20260507221003 | 1 | 0 | 0.0 | 0.0 | 0.00 | 0.00 | 0.00 | 60 | 1022.4 |
| 20260507220503 | 1 | 0 | 0.0 | 0.0 | 0.00 | 0.00 | 0.00 | 60 | 1022.2 |
| 20260507220004 | 1 | 0 | 0.0 | 0.0 | 0.00 | 0.00 | 0.00 | 60 | 1022.2 |
| 20260507215503 | 1 | 0 | 0.0 | 0.0 | 0.00 | 0.00 | 0.00 | 59 | 1022.1 |
| 20260507215004 | 2 | 0 | 0.0 | 0.0 | 0.00 | 0.00 | 0.00 | 58 | 1022.2 |
| 20260507214503 | 2 | 0 | 0.0 | 0.0 | 0.00 | 0.00 | 0.00 | 58 | 1022.2 |
| 20260507214003 | 2 | 0 | 0.0 | 0.0 | 0.00 | 0.00 | 0.00 | 58 | 1022.1 |
| 20260507213503 | 1 | 0 | 0.0 | 0.0 | 0.00 | 0.00 | 0.00 | 58 | 1022.0 |
| 20260507213003 | 1 | 0 | 0.0 | 0.0 | 0.00 | 0.00 | 0.00 | 56 | 1021.9 |
| 20260507212503 | 1 | 0 | 0.0 | 0.0 | 0.00 | 0.00 | 0.00 | 53 | 1022.0 |
| 20260507212003 | 2 | 0 | 0.0 | 0.0 | 0.00 | 0.00 | 0.00 | 51 | 1021.8 |
| 20260507211504 | 2 | 0 | 0.0 | 0.0 | 0.00 | 0.00 | 0.00 | 50 | 1021.7 |
| 20260507211004 | 2 | 0 | 0.0 | 0.0 | 0.00 | 0.00 | 0.00 | 50 | 1021.6 |
| 20260507210715 | 2 | 0 | 0.0 | 0.0 | 0.00 | 0.00 | 0.00 | 50 | 1021.6 |
| 20260507210233 | 2 | 0 | 0.0 | 0.0 | 0.00 | 0.00 | 0.00 | 49 | 1021.6 |
| 20260507205716 | 3 | 0 | 0.0 | 0.0 | 0.00 | 0.00 | 0.00 | 53 | 1021.5 |
| 20260507205213 | 3 | 0 | 0.0 | 0.0 | 0.00 | 0.00 | 0.00 | 53 | 1021.4 |
| 20260507204503 | 3 | 0 | 0.0 | 0.0 | 0.00 | 0.00 | 0.00 | 52 | 1021.3 |
| 20260507204003 | 3 | 0 | 0.0 | 0.0 | 0.00 | 0.00 | 0.00 | 51 | 1021.3 |
| 20260507203503 | 3 | 0 | 0.0 | 0.0 | 0.00 | 0.00 | 0.00 | 50 | 1021.2 |
| 20260507203006 | 3 | 0 | 0.0 | 0.0 | 0.00 | 0.00 | 0.00 | 47 | 1021.2 |
| 20260507202503 | 3 | 0 | 0.0 | 0.0 | 0.00 | 0.00 | 0.00 | 44 | 1021.0 |
| 20260507202004 | 4 | 0 | 0.0 | 0.0 | 0.00 | 0.00 | 0.00 | 43 | 1021.0 |
| 20260507201503 | 4 | 0 | 0.0 | 0.0 | 0.00 | 0.00 | 0.00 | 42 | 1021.0 |
| 20260507201003 | 4 | 0 | 0.0 | 0.0 | 0.00 | 0.00 | 0.00 | 42 | 1020.8 |
| 20260507200503 | 4 | 0 | 0.0 | 0.0 | 0.00 | 0.00 | 0.00 | 41 | 1020.8 |
| 20260507200004 | 4 | 0 | 0.0 | 0.0 | 0.00 | 0.00 | 0.00 | 41 | 1020.6 |
| 20260507195716 | 4 | 0 | 0.0 | 0.0 | 0.00 | 0.00 | 0.00 | 41 | 1020.6 |
| 20260507195003 | 5 | 0 | 0.0 | 0.0 | 0.00 | 0.00 | 0.00 | 41 | 1020.5 |
| 20260507194717 | 5 | 0 | 0.0 | 0.0 | 0.00 | 0.00 | 0.00 | 40 | 1020.5 |
| 20260507194003 | 5 | 0 | 0.0 | 0.0 | 0.00 | 0.00 | 0.00 | 37 | 1020.4 |
| 20260507193503 | 5 | 0 | 0.0 | 0.0 | 0.00 | 0.00 | 0.00 | 36 | 1020.3 |
| 20260507193216 | 5 | 0 | 0.0 | 0.0 | 0.00 | 0.00 | 0.00 | 36 | 1020.2 |
| 20260507192503 | 5 | 0 | 0.0 | 0.0 | 0.00 | 0.00 | 0.00 | 35 | 1020.2 |
| 20260507192003 | 5 | 0 | 0.0 | 0.0 | 0.00 | 0.00 | 0.00 | 34 | 1020.0 |
| 20260507191503 | 6 | 0 | 0.0 | 0.0 | 0.00 | 0.00 | 0.00 | 34 | 1020.0 |
| 20260507191003 | 6 | 0 | 0.0 | 0.0 | 0.00 | 0.00 | 0.00 | 32 | 1019.8 |
| 20260507190504 | 6 | 0 | 0.0 | 0.0 | 0.00 | 0.00 | 0.00 | 32 | 1019.9 |
| 20260507190005 | 6 | 0 | 0.0 | 0.0 | 0.00 | 0.00 | 0.00 | 31 | 1019.8 |
| 20260507185503 | 7 | 0 | 0.0 | 0.0 | 0.00 | 0.00 | 0.00 | 30 | 1019.7 |
| 20260507185003 | 7 | 0 | 0.0 | 0.0 | 0.00 | 0.00 | 0.00 | 30 | 1019.5 |
| 20260507184504 | 7 | 0 | 0.0 | 0.0 | 0.00 | 0.00 | 0.00 | 30 | 1019.5 |
| 20260507184003 | 7 | 0 | 0.0 | 0.0 | 0.00 | 0.00 | 0.00 | 30 | 1019.7 |
| 20260507183503 | 7 | 0 | 0.0 | 0.0 | 0.00 | 0.00 | 0.00 | 30 | 1019.5 |
| 20260507183003 | 8 | 0 | 0.0 | 0.0 | 0.00 | 0.00 | 0.00 | 32 | 1019.6 |
| 20260507182503 | 8 | 315 | 0.0 | 1.6 | 0.00 | 0.00 | 0.00 | 32 | 1019.4 |
| 20260507182004 | 8 | 315 | 0.0 | 3.2 | 0.00 | 0.00 | 0.00 | 32 | 1019.4 |
| 20260507181716 | 8 | 315 | 0.0 | 3.2 | 0.00 | 0.00 | 0.00 | 32 | 1019.3 |
| 20260507181003 | 9 | 26 | 0.0 | 4.8 | 0.00 | 0.00 | 0.00 | 27 | 1019.3 |
| 20260507180504 | 9 | 3 | 0.0 | 8.0 | 0.00 | 0.00 | 0.00 | 26 | 1019.2 |
| 20260507180004 | 10 | 32 | 1.6 | 8.0 | 0.00 | 0.00 | 0.00 | 25 | 1019.2 |
| 20260507175503 | 10 | 17 | 1.6 | 8.0 | 0.00 | 0.00 | 0.00 | 25 | 1019.0 |
| 20260507175003 | 10 | 328 | 3.2 | 8.0 | 0.00 | 0.00 | 0.00 | 23 | 1018.9 |
| 20260507174503 | 10 | 316 | 1.6 | 6.4 | 0.00 | 0.00 | 0.00 | 24 | 1019.0 |
| 20260507174003 | 10 | 357 | 1.6 | 6.4 | 0.00 | 0.00 | 0.00 | 24 | 1018.8 |
| 20260507173503 | 10 | 355 | 3.2 | 6.4 | 0.00 | 0.00 | 0.00 | 23 | 1018.9 |
| 20260507173004 | 10 | 337 | 1.6 | 6.4 | 0.00 | 0.00 | 0.00 | 23 | 1018.7 |
| 20260507172503 | 10 | 301 | 1.6 | 4.8 | 0.00 | 0.00 | 0.00 | 23 | 1018.7 |
| 20260507172213 | 11 | 307 | 3.2 | 4.8 | 0.00 | 0.00 | 0.00 | 22 | 1018.6 |
| 20260507171504 | 11 | 307 | 3.2 | 8.0 | 0.00 | 0.00 | 0.00 | 21 | 1018.5 |
| 20260507171003 | 11 | 349 | 4.8 | 11.3 | 0.00 | 0.00 | 0.00 | 21 | 1018.6 |
| 20260507170503 | 11 | 8 | 4.8 | 11.3 | 0.00 | 0.00 | 0.00 | 20 | 1018.5 |
| 20260507170215 | 11 | 352 | 4.8 | 11.3 | 0.00 | 0.00 | 0.00 | 20 | 1018.5 |
| 20260507165503 | 11 | 325 | 4.8 | 6.4 | 0.00 | 0.00 | 0.00 | 21 | 1018.4 |
| 20260507165216 | 11 | 318 | 4.8 | 6.4 | 0.00 | 0.00 | 0.00 | 21 | 1018.6 |
| 20260507164503 | 11 | 302 | 4.8 | 6.4 | 0.00 | 0.00 | 0.00 | 20 | 1018.3 |
| 20260507164003 | 11 | 306 | 3.2 | 6.4 | 0.00 | 0.00 | 0.00 | 21 | 1018.4 |
| 20260507163503 | 11 | 311 | 3.2 | 8.0 | 0.00 | 0.00 | 0.00 | 20 | 1018.4 |
| 20260507163004 | 11 | 324 | 4.8 | 8.0 | 0.00 | 0.00 | 0.00 | 21 | 1018.3 |
| 20260507162716 | 12 | 330 | 4.8 | 8.0 | 0.00 | 0.00 | 0.00 | 21 | 1018.3 |
| 20260507162003 | 12 | 326 | 4.8 | 8.0 | 0.00 | 0.00 | 0.00 | 21 | 1018.2 |
| 20260507161503 | 12 | 305 | 4.8 | 6.4 | 0.00 | 0.00 | 0.00 | 21 | 1018.2 |
| 20260507161003 | 12 | 297 | 4.8 | 6.4 | 0.00 | 0.00 | 0.00 | 21 | 1018.2 |
| 20260507160503 | 12 | 305 | 3.2 | 6.4 | 0.00 | 0.00 | 0.00 | 21 | 1018.2 |
| 20260507160004 | 12 | 306 | 4.8 | 8.0 | 0.00 | 0.00 | 0.00 | 21 | 1018.1 |
| 20260507155714 | 12 | 302 | 4.8 | 8.0 | 0.00 | 0.00 | 0.00 | 21 | 1018.1 |
| 20260507155217 | 12 | 330 | 6.4 | 17.7 | 0.00 | 0.00 | 0.00 | 21 | 1018.1 |
| 20260507154504 | 12 | 325 | 8.0 | 17.7 | 0.00 | 0.00 | 0.00 | 20 | 1017.9 |
| 20260507154004 | 13 | 323 | 4.8 | 14.5 | 0.00 | 0.00 | 0.00 | 23 | 1017.9 |
| 20260507153504 | 13 | 333 | 4.8 | 8.0 | 0.00 | 0.00 | 0.00 | 22 | 1017.8 |
| 20260507153004 | 13 | 318 | 3.2 | 8.0 | 0.00 | 0.00 | 0.00 | 23 | 1017.8 |
| 20260507152503 | 13 | 302 | 3.2 | 6.4 | 0.00 | 0.00 | 0.00 | 23 | 1017.8 |
| 20260507152003 | 13 | 299 | 4.8 | 6.4 | 0.00 | 0.00 | 0.00 | 23 | 1017.7 |
| 20260507151504 | 14 | 322 | 4.8 | 6.4 | 0.00 | 0.00 | 0.00 | 22 | 1017.5 |
| 20260507151003 | 13 | 317 | 3.2 | 6.4 | 0.00 | 0.00 | 0.00 | 22 | 1017.6 |
| 20260507150713 | 13 | 324 | 4.8 | 8.0 | 0.00 | 0.00 | 0.00 | 23 | 1017.6 |
| 20260507150004 | 13 | 344 | 6.4 | 8.0 | 0.00 | 0.00 | 0.00 | 23 | 1017.5 |
| 20260507145714 | 13 | 306 | 6.4 | 9.7 | 0.00 | 0.00 | 0.00 | 22 | 1017.5 |
| 20260507145003 | 14 | 286 | 4.8 | 9.7 | 0.00 | 0.00 | 0.00 | 21 | 1017.5 |
| 20260507144503 | 15 | 307 | 4.8 | 6.4 | 0.00 | 0.00 | 0.00 | 20 | 1017.6 |
| 20260507144213 | 15 | 291 | 4.8 | 6.4 | 0.00 | 0.00 | 0.00 | 20 | 1017.4 |
| 20260507143503 | 15 | 301 | 6.4 | 6.4 | 0.00 | 0.00 | 0.00 | 20 | 1017.5 |
| 20260507143003 | 15 | 313 | 6.4 | 6.4 | 0.00 | 0.00 | 0.00 | 20 | 1017.4 |
| 20260507142503 | 15 | 300 | 6.4 | 12.9 | 0.00 | 0.00 | 0.00 | 20 | 1017.2 |
| 20260507142003 | 14 | 304 | 6.4 | 12.9 | 0.00 | 0.00 | 0.00 | 21 | 1017.2 |
| 20260507141503 | 14 | 340 | 8.0 | 12.9 | 0.00 | 0.00 | 0.00 | 21 | 1017.2 |
| 20260507141003 | 14 | 329 | 8.0 | 12.9 | 0.00 | 0.00 | 0.00 | 21 | 1017.4 |
| 20260507140504 | 14 | 301 | 6.4 | 8.0 | 0.00 | 0.00 | 0.00 | 20 | 1017.3 |
| 20260507140005 | 15 | 330 | 6.4 | 9.7 | 0.00 | 0.00 | 0.00 | 20 | 1017.2 |
| 20260507135504 | 15 | 344 | 6.4 | 9.7 | 0.00 | 0.00 | 0.00 | 20 | 1017.1 |
| 20260507135003 | 15 | 309 | 6.4 | 9.7 | 0.00 | 0.00 | 0.00 | 19 | 1017.1 |
| 20260507134503 | 16 | 304 | 4.8 | 6.4 | 0.00 | 0.00 | 0.00 | 18 | 1017.2 |
| 20260507134003 | 16 | 325 | 3.2 | 11.3 | 0.00 | 0.00 | 0.00 | 19 | 1016.9 |
| 20260507133717 | 16 | 313 | 4.8 | 11.3 | 0.00 | 0.00 | 0.00 | 19 | 1016.9 |
| 20260507133003 | 16 | 326 | 6.4 | 11.3 | 0.00 | 0.00 | 0.00 | 18 | 1016.9 |
| 20260507132503 | 16 | 335 | 6.4 | 11.3 | 0.00 | 0.00 | 0.00 | 18 | 1017.0 |
| 20260507132003 | 16 | 321 | 4.8 | 12.9 | 0.00 | 0.00 | 0.00 | 19 | 1017.0 |
| 20260507131503 | 15 | 348 | 6.4 | 12.9 | 0.00 | 0.00 | 0.00 | 18 | 1017.0 |
| 20260507131003 | 16 | 341 | 8.0 | 14.5 | 0.00 | 0.00 | 0.00 | 18 | 1016.9 |
| 20260507130503 | 16 | 334 | 6.4 | 14.5 | 0.00 | 0.00 | 0.00 | 17 | 1016.9 |
| 20260507130218 | 16 | 355 | 4.8 | 14.5 | 0.00 | 0.00 | 0.00 | 17 | 1016.8 |
| 20260507125503 | 17 | 322 | 4.8 | 8.0 | 0.00 | 0.00 | 0.00 | 16 | 1016.8 |
| 20260507125214 | 16 | 332 | 4.8 | 8.0 | 0.00 | 0.00 | 0.00 | 17 | 1016.8 |
| 20260507124503 | 16 | 338 | 4.8 | 12.9 | 0.00 | 0.00 | 0.00 | 18 | 1017.0 |
| 20260507124003 | 16 | 318 | 4.8 | 8.0 | 0.00 | 0.00 | 0.00 | 17 | 1016.9 |
| 20260507123713 | 16 | 349 | 4.8 | 8.0 | 0.00 | 0.00 | 0.00 | 17 | 1016.9 |
| 20260507123003 | 16 | 341 | 4.8 | 8.0 | 0.00 | 0.00 | 0.00 | 18 | 1016.9 |
| 20260507122503 | 16 | 326 | 3.2 | 8.0 | 0.00 | 0.00 | 0.00 | 18 | 1016.9 |
| 20260507122003 | 15 | 341 | 3.2 | 6.4 | 0.00 | 0.00 | 0.00 | 18 | 1016.9 |
| 20260507121504 | 15 | 16 | 4.8 | 9.7 | 0.00 | 0.00 | 0.00 | 19 | 1016.8 |
| 20260507121003 | 15 | 45 | 4.8 | 11.3 | 0.00 | 0.00 | 0.00 | 18 | 1017.0 |
| 20260507120715 | 15 | 63 | 4.8 | 11.3 | 0.00 | 0.00 | 0.00 | 18 | 1017.0 |
| 20260507120004 | 15 | 56 | 1.6 | 4.8 | 0.00 | 0.00 | 0.00 | 18 | 1017.1 |
| 20260507115503 | 15 | 348 | 3.2 | 12.9 | 0.00 | 0.00 | 0.00 | 18 | 1017.1 |
| 20260507115003 | 15 | 358 | 4.8 | 12.9 | 0.00 | 0.00 | 0.00 | 19 | 1016.9 |
| 20260507114503 | 15 | 30 | 3.2 | 6.4 | 0.00 | 0.00 | 0.00 | 19 | 1017.1 |
| 20260507114003 | 15 | 36 | 3.2 | 4.8 | 0.00 | 0.00 | 0.00 | 18 | 1017.0 |
| 20260507113503 | 16 | 36 | 3.2 | 4.8 | 0.00 | 0.00 | 0.00 | 17 | 1017.0 |
| 20260507113216 | 15 | 37 | 3.2 | 6.4 | 0.00 | 0.00 | 0.00 | 18 | 1017.0 |
| 20260507112503 | 15 | 4 | 6.4 | 11.3 | 0.00 | 0.00 | 0.00 | 18 | 1017.0 |
| 20260507112003 | 15 | 360 | 6.4 | 11.3 | 0.00 | 0.00 | 0.00 | 19 | 1016.9 |
| 20260507111504 | 15 | 15 | 4.8 | 9.7 | 0.00 | 0.00 | 0.00 | 17 | 1017.0 |
| 20260507111003 | 15 | 68 | 3.2 | 6.4 | 0.00 | 0.00 | 0.00 | 18 | 1016.9 |
| 20260507110503 | 14 | 55 | 4.8 | 9.7 | 0.00 | 0.00 | 0.00 | 18 | 1017.0 |
| 20260507110004 | 15 | 29 | 4.8 | 11.3 | 0.00 | 0.00 | 0.00 | 19 | 1016.9 |
| 20260507105503 | 15 | 21 | 4.8 | 11.3 | 0.00 | 0.00 | 0.00 | 18 | 1017.1 |
| 20260507105003 | 15 | 4 | 3.2 | 6.4 | 0.00 | 0.00 | 0.00 | 18 | 1017.1 |
| 20260507104504 | 15 | 356 | 3.2 | 6.4 | 0.00 | 0.00 | 0.00 | 18 | 1017.0 |
| 20260507104003 | 16 | 4 | 4.8 | 8.0 | 0.00 | 0.00 | 0.00 | 18 | 1017.0 |
| 20260507103504 | 15 | 14 | 6.4 | 8.0 | 0.00 | 0.00 | 0.00 | 18 | 1017.1 |
| 20260507103003 | 16 | 16 | 4.8 | 8.0 | 0.00 | 0.00 | 0.00 | 18 | 1017.0 |
| 20260507102503 | 16 | 17 | 3.2 | 8.0 | 0.00 | 0.00 | 0.00 | 16 | 1017.2 |
| 20260507102003 | 16 | 349 | 3.2 | 8.0 | 0.00 | 0.00 | 0.00 | 18 | 1017.1 |
| 20260507101716 | 16 | 26 | 3.2 | 8.0 | 0.00 | 0.00 | 0.00 | 18 | 1017.1 |
| 20260507101213 | 16 | 10 | 4.8 | 8.0 | 0.00 | 0.00 | 0.00 | 18 | 1017.0 |
| 20260507100503 | 16 | 24 | 3.2 | 6.4 | 0.00 | 0.00 | 0.00 | 18 | 1017.0 |
| 20260507100004 | 16 | 63 | 1.6 | 6.4 | 0.00 | 0.00 | 0.00 | 17 | 1016.9 |
| 20260507095503 | 17 | 125 | 1.6 | 6.4 | 0.00 | 0.00 | 0.00 | 16 | 1016.9 |
| 20260507095003 | 17 | 174 | 1.6 | 4.8 | 0.00 | 0.00 | 0.00 | 16 | 1016.9 |
| 20260507094713 | 16 | 152 | 1.6 | 4.8 | 0.00 | 0.00 | 0.00 | 17 | 1016.9 |
| 20260507094003 | 16 | 119 | 3.2 | 4.8 | 0.00 | 0.00 | 0.00 | 17 | 1016.9 |
| 20260507093714 | 15 | 124 | 1.6 | 3.2 | 0.00 | 0.00 | 0.00 | 18 | 1016.9 |
| 20260507093003 | 15 | 120 | 3.2 | 6.4 | 0.00 | 0.00 | 0.00 | 18 | 1016.9 |
| 20260507092503 | 15 | 92 | 3.2 | 6.4 | 0.00 | 0.00 | 0.00 | 18 | 1016.8 |
| 20260507092003 | 15 | 99 | 3.2 | 6.4 | 0.00 | 0.00 | 0.00 | 18 | 1016.9 |
| 20260507091503 | 16 | 51 | 3.2 | 11.3 | 0.00 | 0.00 | 0.00 | 17 | 1016.8 |
| 20260507091214 | 16 | 7 | 3.2 | 11.3 | 0.00 | 0.00 | 0.00 | 16 | 1016.9 |
| 20260507090717 | 16 | 6 | 3.2 | 11.3 | 0.00 | 0.00 | 0.00 | 17 | 1016.8 |
| 20260507090004 | 16 | 44 | 1.6 | 4.8 | 0.00 | 0.00 | 0.00 | 17 | 1016.8 |
| 20260507085503 | 15 | 38 | 1.6 | 4.8 | 0.00 | 0.00 | 0.00 | 17 | 1017.0 |
| 20260507085003 | 15 | 94 | 1.6 | 4.8 | 0.00 | 0.00 | 0.00 | 18 | 1017.0 |
| 20260507084503 | 15 | 126 | 4.8 | 6.4 | 0.00 | 0.00 | 0.00 | 19 | 1016.9 |
| 20260507084003 | 15 | 138 | 4.8 | 6.4 | 0.00 | 0.00 | 0.00 | 19 | 1017.1 |
| 20260507083503 | 15 | 121 | 3.2 | 6.4 | 0.00 | 0.00 | 0.00 | 18 | 1017.0 |
| 20260507083003 | 16 | 44 | 1.6 | 6.4 | 0.00 | 0.00 | 0.00 | 17 | 1017.0 |
| 20260507082505 | 15 | 63 | 3.2 | 6.4 | 0.00 | 0.00 | 0.00 | 18 | 1017.0 |
| 20260507082003 | 15 | 104 | 4.8 | 6.4 | 0.00 | 0.00 | 0.00 | 18 | 1017.1 |
| 20260507081504 | 15 | 127 | 4.8 | 6.4 | 0.00 | 0.00 | 0.00 | 19 | 1017.0 |
| 20260507081215 | 15 | 125 | 4.8 | 9.7 | 0.00 | 0.00 | 0.00 | 19 | 1017.1 |
| 20260507080503 | 14 | 130 | 4.8 | 9.7 | 0.00 | 0.00 | 0.00 | 19 | 1017.0 |
| 20260507080004 | 15 | 131 | 3.2 | 6.4 | 0.00 | 0.00 | 0.00 | 19 | 1017.0 |
| 20260507075503 | 15 | 136 | 4.8 | 6.4 | 0.00 | 0.00 | 0.00 | 19 | 1017.2 |